User: anonymous   Login
Location: Peebles
(55.6412°N, 3.1714°W)
Time: 12:13:19
(UTC+00:00)
Language:

Cosmos 2344 - Orbit

View from above orbital plane
View from above orbital plane
View from above satellite
View from above satellite

Ground track
Ground track

The orbit data is extracted from the following two-line orbital elements,

1 24827U 97028A   21341.62477022 -.00000208  00000-0 -19213-2 0  9990
2 24827  63.3192  95.7606 1044597  48.4405 329.9771 11.07960991991456
Epoch (UTC): 07 December 2021 14:59:40
Eccentricity: 0.1044597
inclination: 63.3192°
perigee height: 1233 km
apogee height: 3009 km
right ascension of ascending node: 95.7606°
argument of perigee: 48.4405°
revolutions per day: 11.07960991
mean anomaly at epoch: 329.9771°
orbit number at epoch: 99145

The dashed part of the orbit path shows where the satellite is in the earth's shadow,  

DLR